Vertical_Velocity
0 -0 -1 2 0 -1 -2 -1 -2 -3 -1 -1 -3 -2 -0 -1 1 -2 -1 -2 -1 -0 -0 -0 -3 1 -7 -6 -5 -1 1 4 5 19 -4 2 10 5 -8 7 1 -8 17 -1 -6 11 3
0 -0 0 -1 -1 -1 -1 -2 -2 -2 -0 -2 -3 -0 -1 -1 -2 -4 -5 -5 -6 -5 -7 -7 -4 -1 -4 1 3 -1 -1 -3 -7 -2 5 13 4 29 4 -14 19 14 3 -11 14 17 -1
-1 -0 -1 0 -1 -1 -1 -2 -2 -2 -2 -3 -2 -3 -2 -3 -3 -4 -1 -4 -1 -2 -3 -4 -2 -2 -1 -6 -4 -3 -8 -1 -4 -6 -19 6 9 16 17 3 5 9 -11 7 10 10 2
-0 -1 -1 -0 -1 -2 -1 -1 -1 -2 -2 -3 -3 -2 -4 -6 -1 -2 -3 -5 -5 -6 -7 -7 -1 2 5 3 -0 -5 2 -1 4 1 -10 5 -3 -5 11 12 12 -9 29 2 -1 -6 -1
-1 -1 -1 -1 -1 -2 -1 -1 -1 -2 -3 -3 -2 -4 -5 -4 -2 -1 -6 -2 -7 -4 -3 -3 1 -8 3 -9 -2 -2 -3 -18 -11 -1 -4 -1 3 2 -1 3 16 10 -11 1 9 4 11
-1 -1 -2 -2 -2 -2 -0 -1 -3 -2 -4 -2 -2 -4 -4 -3 -4 0 -4 -0 1 -0 -0 3 -17 -15 -26 -8 1 -4 0 13 -9 -1 -4 -1 1 0 1 20 -12 -8 18 -2 -2 -19 -10
-1 -1 -1 -1 -1 -2 0 -2 -4 -2 -3 -4 -3 -5 -5 -2 -3 -2 1 7 -5 -6 -6 -2 10 10 2 -13 12 5 -8 -16 3 6 -2 5 6 -16 13 11 15 -4 -4 21 32 -0 0
-2 -2 -2 -2 -2 -3 -1 -2 -3 -2 -5 -3 -2 -4 -4 -2 -8 -3 -2 -11 -5 -3 -3 -8 -2 -3 5 11 -15 -5 -2 -20 -5 -5 3 2 -3 14 8 4 4 1 -4 -13 12 1 10
-2 -2 -2 -2 -2 -2 -2 -2 -4 -2 -3 -3 -6 -2 -3 -4 -2 2 -9 -9 -3 -6 -5 -0 -7 -6 -13 -5 -7 -10 -11 -1 -2 1 1 -1 5 2 -1 2 -0 2 -2 3 -11 14 19
-2 -2 -2 -2 -2 -1 -2 -3 -3 -2 -3 -3 -6 -4 -4 -4 2 -3 -4 -8 -3 -4 -4 -17 -14 -9 -22 -6 13 -0 9 -3 -1 -4 -0 7 6 0 -7 -1 4 -1 -6 3 -6 3 8
-2 -1 -2 -2 -2 -1 -1 -4 -3 -3 -3 -5 -4 -2 -7 -9 -7 -6 -3 -3 -3 -5 -9 -4 -20 24 36 10 -1 -12 -9 1 -3 3 2 9 1 -3 8 8 1 15 -2 -1 3 2 4
-1 -1 -0 -2 -3 -2 -1 -3 -5 -3 -3 -2 -4 -1 -5 4 -4 -10 -3 -4 -12 -11 -12 -19 9 -7 -23 -3 4 14 -17 2 0 -4 -1 3 6 0 12 6 -1 -4 -8 7 2 3 4
-1 -3 -1 -2 -3 -2 -3 -3 -3 -2 -2 -4 -4 -4 -3 -5 -16 -7 -4 -1 -8 -15 5 -7 -17 -8 4 -2 -12 -9 -15 -32 -18 -12 -7 -2 1 1 4 9 3 0 -2 -2 6 8 -4
-3 -2 -2 -1 -1 -1 -3 -2 -2 -3 -3 -4 -5 -1 -4 -16 -9 -3 -1 -32 -16 1 1 3 1 3 -1 -23 -5 -1 1 -3 1 -1 2 0 -19 -6 3 3 6 4 2 -0 -5 -1 -2
-3 -2 -1 -0 -1 -0 -3 -2 -2 -3 -3 -3 -4 2 -5 -11 -8 3 2 -30 -1 0 0 -4 -0 -7 -8 1 7 -7 2 -5 5 -0 -1 -4 -5 9 2 2 0 1 1 7 -1 1 0
-3 -3 -2 -0 -0 -1 -3 -1 -2 -4 -4 -1 -1 3 -11 -7 -9 1 -35 -11 -2 1 2 1 -1 3 -2 -5 -7 -9 -4 -2 -1 7 4 1 -4 1 0 3 8 -2 2 1 2 -1 -0
-1 -2 -3 -2 -0 -2 -2 -2 -2 -3 -3 -1 -2 -1 -6 -3 3 -15 -23 -5 -3 -1 -1 -2 0 -1 7 -2 4 -0 3 5 -1 -2 -0 3 2 -5 -6 -14 -0 -11 -4 1 4 -1 -2
-3 -3 -3 -3 -1 -1 -3 -3 -0 -1 -2 -1 -2 -8 -2 -3 -13 -14 -8 -5 0 -0 -0 1 1 0 1 -2 -1 2 2 7 3 3 -6 1 2 -1 -0 5 3 9 6 0 0 -0 1
-2 -3 -2 -2 -3 -1 -2 -3 -2 -2 -3 -4 -4 -6 -4 -2 -18 -6 -1 -2 -2 -0 -6 0 -0 0 2 2 -5 -2 2 8 3 -0 -8 -4 -7 -7 -11 -3 19 -4 3 7 8 3 4
-0 -3 -2 -3 -2 -1 -1 -2 -3 -2 -2 -5 -7 -5 -3 -6 -4 -4 -3 -1 -2 -2 -1 -3 0 2 0 -0 2 -2 -1 -3 1 -3 4 -1 -0 1 1 5 12 -7 -3 1 -1 -5 2
-0 -2 -2 -3 -3 -1 -1 -2 -4 -2 -4 -5 -2 -0 -3 -6 -4 -5 -3 0 0 -1 0 -1 2 0 -1 -4 -3 -2 -1 1 6 1 -2 -8 -1 -0 0 1 3 17 3 5 -8 3 -2
-0 -3 -1 -3 -3 -1 -2 -3 -3 -2 -2 -1 -3 -3 -1 -3 -2 -3 -4 -1 -1 1 -2 0 0 2 2 1 2 -8 -4 -2 -3 -1 -4 1 1 0 -2 -0 1 -1 -1 4 1 -0 2
-0 -2 -2 -3 -3 -1 -1 -1 -2 -2 -4 -3 -0 -2 -1 -1 -2 -2 -3 -3 -1 -1 -1 0 -2 -2 0 1 3 0 -0 1 -0 -6 -5 -6 1 -3 -1 -1 -0 -10 -9 2 7 2 3
-1 -1 -1 -1 -4 -2 -2 -2 -2 -2 -3 -2 -2 -1 -1 -1 -3 -1 -1 -1 -2 -0 -1 -3 0 -0 0 -2 0 -1 0 -0 0 1 -2 -5 0 -2 -4 -1 -10 0 1 3 2 5 4
-1 -2 -3 -1 -2 -1 -2 -2 -1 -2 -2 -1 -2 -2 -1 -1 -1 -3 -2 -3 -1 -3 -4 6 3 -0 -4 -3 -7 -4 -2 2 -1 -0 -1 -1 -2 -0 -3 -2 -2 -4 -5 -4 -4 -2 1
-0 -2 -4 -1 -3 -2 -1 -1 -2 -3 -2 -2 -1 -1 0 -1 -2 -0 -1 -2 -3 -4 -1 0 -4 -1 -4 -9 -6 -2 -2 -3 -3 5 -1 1 1 -4 -2 -3 -3 -1 -0 -0 1 -1 -1
-0 -3 -4 1 -2 -1 -1 -2 -2 -2 -2 -2 -3 -1 1 -2 -1 -1 -3 -1 -0 -1 -3 -2 -1 -5 -3 -0 -2 -1 -1 1 -2 -2 -10 -9 -6 -3 -2 -1 -2 1 -2 -2 -3 -3 -1
1 -3 -4 -1 -2 -1 -3 -3 -3 2 -0 2 0 -2 -2 -1 -1 -0 -1 -1 -1 -2 -3 -1 -3 -3 -3 -2 -2 0 -1 -1 -2 1 -2 -1 -1 -1 0 -1 -3 -0 -2 -1 -0 -1 0
2 0 -1 -3 -5 -2 -1 -2 -2 -3 2 -0 -0 -1 2 -0 1 0 0 -1 -1 -2 -4 -2 1 -2 -3 -4 -1 -1 -2 -1 -0 -3 -1 -3 -2 -2 0 -4 3 -1 -1 -1 -1 -0 -2
Height
3144 3141 3138 3135 3130 3125 3120 3114 3110 3104 3098 3093 3087 3081 3074 3065 3055 3047 3037 3032 3024 3016 3008 3002 2995 2991 2986 2986 2984 2982 2981 2979 2977 2975 2977 2980 2981 2983 2978 2983 2993 2988 2994 3004 3011 3014 3021
3146 3143 3140 3135 3130 3126 3121 3116 3110 3105 3099 3092 3084 3077 3069 3060 3052 3041 3031 3025 3017 3009 3002 2998 2994 2989 2986 2986 2983 2979 2975 2974 2972 2969 2969 2971 2973 2974 2975 2977 2980 2982 2989 2994 3001 3006 3015
3148 3145 3141 3136 3131 3126 3122 3117 3111 3105 3098 3089 3081 3072 3065 3057 3047 3036 3027 3021 3014 3007 3000 2997 2992 2990 2986 2984 2980 2976 2972 2969 2967 2965 2962 2963 2962 2963 2963 2967 2976 2977 2982 2984 2988 2999 3003
3150 3146 3142 3137 3132 3127 3122 3116 3111 3104 3097 3088 3079 3070 3061 3054 3044 3034 3026 3019 3012 3006 3000 2997 2993 2989 2984 2981 2977 2972 2969 2966 2962 2959 2957 2956 2954 2956 2955 2960 2965 2967 2974 2974 2977 2990 2996
3151 3147 3142 3138 3133 3128 3122 3115 3109 3102 3095 3086 3076 3068 3059 3050 3042 3034 3026 3018 3011 3005 3001 2997 2994 2985 2982 2978 2972 2967 2963 2958 2954 2953 2951 2950 2949 2948 2951 2953 2954 2955 2951 2961 2971 2980 2989
3152 3148 3143 3138 3134 3128 3122 3115 3108 3101 3093 3084 3076 3067 3057 3047 3039 3032 3026 3019 3012 3007 3004 2999 2990 2986 2981 2972 2967 2963 2959 2954 2948 2945 2944 2944 2942 2942 2942 2946 2945 2950 2948 2952 2959 2969 2979
3153 3149 3144 3139 3133 3127 3121 3115 3107 3099 3092 3085 3076 3066 3055 3045 3037 3031 3027 3021 3014 3007 3001 2999 2993 2986 2979 2974 2968 2962 2953 2948 2943 2938 2936 2936 2937 2935 2936 2939 2941 2945 2948 2948 2953 2959 2968
3154 3150 3145 3139 3133 3126 3120 3114 3107 3099 3090 3081 3075 3067 3056 3046 3038 3031 3026 3018 3008 3007 3003 3000 2995 2987 2980 2972 2965 2959 2952 2942 2935 2932 2931 2932 2930 2930 2929 2933 2936 2940 2940 2943 2948 2953 2958
3155 3151 3145 3140 3133 3126 3119 3113 3107 3099 3090 3080 3072 3064 3055 3049 3041 3034 3024 3018 3009 3006 3004 3002 2994 2985 2975 2972 2966 2957 2948 2938 2934 2931 2929 2928 2929 2926 2925 2926 2928 2931 2935 2938 2947 2946 2952
3156 3151 3146 3140 3134 3127 3119 3113 3106 3097 3090 3084 3074 3062 3054 3047 3044 3030 3025 3020 3011 3006 3006 3003 2993 2987 2978 2972 2969 2960 2949 2940 2936 2932 2928 2928 2926 2922 2921 2922 2927 2928 2929 2937 2943 2945 2944
3157 3152 3147 3141 3135 3128 3120 3114 3106 3097 3089 3081 3073 3067 3056 3044 3040 3035 3026 3020 3012 3009 3011 3008 2998 2993 2983 2978 2970 2962 2952 2943 2938 2934 2934 2931 2925 2922 2920 2921 2921 2927 2932 2934 2934 2940 2942
3158 3153 3148 3142 3135 3129 3122 3115 3107 3099 3090 3081 3073 3064 3060 3056 3044 3035 3026 3020 3019 3011 3016 3010 3006 2994 2984 2978 2971 2965 2955 2946 2939 2936 2933 2931 2928 2924 2920 2920 2922 2922 2923 2928 2932 2943 2945
3159 3153 3148 3142 3136 3130 3123 3116 3108 3100 3092 3085 3075 3067 3059 3051 3044 3035 3028 3021 3018 3018 3023 3016 3004 2998 2990 2981 2973 2966 2956 2946 2945 2938 2933 2931 2931 2927 2921 2921 2924 2926 2929 2931 2933 2938 2939
3160 3154 3149 3143 3137 3131 3124 3117 3109 3102 3094 3087 3079 3073 3064 3055 3048 3038 3031 3025 3016 3026 3022 3017 3010 3003 2995 2986 2980 2972 2964 2955 2953 2950 2945 2940 2936 2932 2930 2928 2927 2926 2929 2930 2938 2934 2939
3161 3155 3149 3143 3138 3132 3125 3118 3111 3104 3097 3089 3082 3077 3066 3057 3050 3043 3038 3014 3030 3029 3026 3018 3010 3003 2998 2993 2988 2977 2971 2967 2962 2958 2956 2950 2946 2942 2935 2931 2928 2928 2930 2931 2931 2930 2933
3162 3156 3149 3143 3138 3132 3127 3119 3113 3106 3099 3091 3084 3077 3066 3058 3054 3047 3030 3026 3034 3032 3028 3022 3016 3010 3004 2997 2992 2985 2979 2976 2969 2966 2961 2958 2952 2946 2938 2934 2931 2930 2933 2933 2932 2933 2939
3161 3156 3150 3144 3137 3131 3127 3120 3113 3107 3100 3092 3085 3076 3068 3061 3057 3046 3032 3037 3036 3034 3030 3026 3020 3015 3011 3004 2999 2993 2990 2983 2975 2968 2964 2959 2958 2953 2946 2942 2942 2934 2934 2933 2933 2935 2937
3161 3155 3149 3143 3136 3131 3127 3120 3114 3108 3100 3092 3086 3077 3073 3066 3058 3043 3044 3043 3041 3038 3033 3027 3023 3018 3013 3008 3003 2998 2994 2989 2982 2974 2967 2963 2959 2954 2954 2953 2948 2945 2937 2936 2937 2934 2934
3160 3155 3149 3142 3136 3130 3124 3118 3114 3107 3100 3092 3085 3078 3071 3066 3056 3054 3051 3048 3044 3039 3034 3029 3024 3022 3017 3012 3006 3002 2998 2994 2987 2980 2974 2971 2967 2959 2955 2955 2952 2943 2941 2938 2936 2935 2941
3159 3154 3149 3142 3136 3129 3124 3118 3113 3107 3100 3093 3086 3079 3073 3066 3063 3060 3054 3050 3046 3040 3035 3031 3027 3022 3017 3013 3010 3006 3001 2997 2991 2985 2981 2977 2975 2973 2975 2973 2969 2958 2948 2941 2936 2940 2946
3157 3154 3147 3142 3137 3129 3124 3118 3113 3107 3102 3095 3088 3083 3077 3072 3065 3061 3057 3053 3049 3044 3039 3034 3029 3024 3019 3014 3011 3008 3004 2998 2995 2990 2985 2980 2979 2977 2975 2973 2971 2966 2957 2950 2945 2948 2952
3156 3153 3147 3142 3136 3129 3124 3118 3113 3108 3102 3097 3090 3084 3077 3073 3068 3064 3060 3054 3049 3046 3041 3037 3032 3027 3022 3017 3014 3008 3006 3002 2998 2993 2988 2985 2982 2979 2977 2973 2972 2970 2967 2963 2959 2956 2956
3154 3151 3147 3141 3135 3129 3124 3118 3113 3108 3103 3097 3091 3085 3080 3075 3070 3065 3060 3056 3051 3046 3043 3038 3033 3028 3024 3019 3015 3011 3007 3004 3001 2997 2991 2987 2983 2980 2978 2974 2972 2972 2972 2971 2969 2966 2961
3152 3149 3146 3140 3135 3129 3123 3117 3112 3107 3103 3098 3092 3086 3080 3077 3072 3067 3062 3057 3053 3048 3044 3040 3034 3030 3026 3019 3015 3011 3008 3005 3002 3000 2996 2991 2987 2983 2980 2977 2984 2983 2980 2977 2975 2973 2970
3150 3148 3144 3140 3134 3129 3123 3117 3111 3106 3102 3097 3092 3087 3081 3076 3072 3068 3064 3060 3055 3050 3045 3039 3034 3030 3025 3020 3015 3011 3008 3006 3004 3000 2998 2994 2992 2988 2986 2985 2988 2984 2982 2979 2977 2976 2972
3148 3145 3142 3138 3133 3128 3122 3116 3111 3105 3100 3096 3091 3086 3081 3076 3073 3069 3064 3059 3055 3051 3046 3041 3035 3030 3025 3020 3017 3014 3011 3009 3004 3002 2998 2995 2993 2992 2989 2988 2992 2988 2984 2980 2978 2977 2975
3146 3143 3140 3136 3132 3127 3121 3115 3110 3104 3099 3094 3089 3085 3080 3075 3072 3068 3063 3059 3054 3050 3045 3039 3035 3030 3026 3021 3018 3015 3012 3011 3007 3002 2997 2995 2992 2991 2990 2989 2989 2987 2984 2981 2982 2986 2977
3144 3141 3137 3133 3129 3125 3120 3114 3108 3102 3097 3092 3088 3082 3079 3074 3070 3066 3062 3058 3054 3050 3045 3041 3036 3030 3025 3022 3019 3018 3014 3011 3007 3005 3001 2999 2996 2993 2991 2990 2990 2988 2986 2985 2984 2981 2979
3141 3138 3135 3130 3125 3122 3118 3113 3106 3100 3095 3089 3085 3080 3076 3072 3069 3064 3060 3056 3052 3048 3045 3040 3037 3032 3029 3026 3022 3017 3013 3011 3006 3003 3001 3000 2999 2996 2994 2991 2988 2987 2986 2984 2983 2981 2980